Location: Kuppenheim
(48.8299°N, 8.2568°E)
Time: 07:51:16
(UTC+00:00)

IDEFIX/ARIANE 42P - Pass Details

Date: 20 June 2021
Orbit: 784 x 803 km, 98.4° (Epoch: 01 August)

Event Time Altitude Azimuth Distance (km) Brightness Sun altitude
Rises 01:38:56 0° 19° (NNE) 3,318 7.7 -12.1°
Reaches altitude 10° 01:41:24 10° 27° (NNE) 2,381 6.6 -11.9°
Maximum altitude 01:46:23 42° 97° (E) 1,127 3.6 -11.5°
Drops below altitude 10° 01:51:18 10° 168° (SSE) 2,352 4.6 -11.0°
Enters shadow 01:52:17 - 172° (S) 2,721 4.9 -10.9°
